Palermo, Italy

3:16 AM CET on February 07, 2016 (GMT +0100)
Punta Raisi

Weather History for LICJ - January, 2013

Change the Weather History Date:

Tuesday, January 15, 2013

  Actual Average Record
Temperature  
Mean Temperature 52 °F -  
Max Temperature 55 °F 59 °F 62 °F (2007)
Min Temperature 48 °F 50 °F 32 °F (2014)
Degree Days  
Heating Degree Days 14    
Growing Degree Days 2 (Base 50)    
Moisture  
Dew Point 44 °F    
Average Humidity 73    
Maximum Humidity 82    
Minimum Humidity 58    
Precipitation  
Precipitation 0.00 in 0.09 in - ()
Sea Level Pressure  
Sea Level Pressure 29.86 in    
Wind  
Wind Speed 8 mph ()    
Max Wind Speed 24 mph    
Max Gust Speed 37 mph    
Visibility 6.1 miles    
Events Rain    
Averages and records for this station are not official NWS values.
T = Trace of Precipitation, MM = Missing Value Source: Averaged Metar Reports

Daily Weather History Graph

Daily Weather History Graph

Search for Another Location

Airport or City:

Trip Planner

Search our weather history database for the weather conditions in past years. The results will help you decide how hot, cold, wet, or windy it might be!

Date:

Astronomy

Jan. 15, 2013 Rise Set
Actual Time 7:22 AM CET 5:11 PM CET
Civil Twilight 6:53 AM CET 5:40 PM CET
Nautical Twilight 6:21 AM CET 6:12 PM CET
Astronomical Twilight 5:49 AM CET 6:44 PM CET
Moon 9:23 AM CET (1/15) 9:38 PM CET (1/15)
Length of Visible Light 10h 46m
Length of Day
9h 48m
Waxing Crescent, 17% of the Moon is Illuminated
Jan 15
Waxing Crescent
Jan 19
First Quarter
Jan 27
Full
Feb 3
Last Quarter
Feb 10
New

Hourly Weather History & Observations

Time (CET) Temp. Dew Point Humidity Pressure Visibility Wind Dir Wind Speed Gust Speed Precip Events Conditions
12:20 AM 53.6 °F 46.4 °F 77% 29.98 in 6.2 mi SSW 8.1 mph - N/A Rain Light Rain
12:50 AM 53.6 °F 46.4 °F 77% 29.98 in 6.2 mi SW 10.4 mph - N/A Rain Light Rain
1:20 AM 51.8 °F 44.6 °F 76% 29.98 in 6.2 mi SSW 8.1 mph - N/A   Scattered Clouds
1:50 AM 51.8 °F 44.6 °F 76% 29.95 in 6.2 mi Variable 3.5 mph - N/A   Partly Cloudy
2:20 AM 50.0 °F 42.8 °F 76% 29.95 in 6.2 mi South 5.8 mph - N/A   Partly Cloudy
2:50 AM 50.0 °F 44.6 °F 82% 29.98 in 6.2 mi SSE 8.1 mph - N/A   Partly Cloudy
3:20 AM 51.8 °F 44.6 °F 76% 29.95 in 6.2 mi SSE 4.6 mph - N/A   Partly Cloudy
3:50 AM 51.8 °F 44.6 °F 76% 29.95 in 6.2 mi Variable 3.5 mph - N/A   Scattered Clouds
4:20 AM 51.8 °F 44.6 °F 76% 29.95 in 6.2 mi Variable 3.5 mph - N/A   Scattered Clouds
4:50 AM 50.0 °F 44.6 °F 82% 29.95 in 6.2 mi Variable 3.5 mph - N/A   Scattered Clouds
5:20 AM 51.8 °F 44.6 °F 76% 29.95 in 6.2 mi Variable 2.3 mph - N/A   Scattered Clouds
5:50 AM 51.8 °F 44.6 °F 76% 29.92 in 6.2 mi Variable 1.2 mph - N/A Rain Light Rain
6:20 AM 51.8 °F 44.6 °F 76% 29.92 in 6.2 mi SSE 4.6 mph - N/A   Scattered Clouds
6:50 AM 51.8 °F 44.6 °F 76% 29.92 in 6.2 mi ENE 6.9 mph - N/A   Scattered Clouds
7:20 AM 51.8 °F 46.4 °F 82% 29.92 in 6.2 mi ENE 5.8 mph - N/A   Mostly Cloudy
7:50 AM 51.8 °F 46.4 °F 82% 29.92 in 6.2 mi ENE 4.6 mph - N/A   Mostly Cloudy
8:20 AM 53.6 °F 46.4 °F 77% 29.89 in 6.2 mi North 5.8 mph - N/A   Mostly Cloudy
8:50 AM 55.4 °F 46.4 °F 72% 29.89 in 6.2 mi Variable 3.5 mph - N/A   Mostly Cloudy
9:20 AM 55.4 °F 46.4 °F 72% 29.89 in 6.2 mi Variable 3.5 mph - N/A   Mostly Cloudy
9:50 AM 55.4 °F 44.6 °F 67% 29.89 in 6.2 mi North 5.8 mph - N/A   Mostly Cloudy
10:20 AM 55.4 °F 46.4 °F 72% 29.89 in 6.2 mi NE 4.6 mph - N/A   Mostly Cloudy
10:50 AM 55.4 °F 44.6 °F 67% 29.86 in 6.2 mi NNE 4.6 mph - N/A   Mostly Cloudy
11:20 AM 55.4 °F 44.6 °F 67% 29.86 in 6.2 mi NNW 6.9 mph - N/A   Mostly Cloudy
11:50 AM 55.4 °F 44.6 °F 67% 29.83 in 6.2 mi NW 5.8 mph - N/A   Mostly Cloudy
12:20 PM 55.4 °F 44.6 °F 67% 29.83 in 6.2 mi NW 4.6 mph - N/A   Mostly Cloudy
12:50 PM 55.4 °F 44.6 °F 67% 29.83 in 6.2 mi NW 5.8 mph - N/A   Mostly Cloudy
1:20 PM 51.8 °F 42.8 °F 71% 29.83 in 2.5 mi West 13.8 mph - N/A Rain Rain
1:50 PM 51.8 °F 44.6 °F 76% 29.80 in 6.2 mi SSE 9.2 mph - N/A Rain Light Rain
2:20 PM 53.6 °F 46.4 °F 77% 29.80 in 6.2 mi Variable 3.5 mph - N/A   Scattered Clouds
2:50 PM 55.4 °F 44.6 °F 67% 29.80 in 6.2 mi WNW 11.5 mph - N/A   Scattered Clouds
3:20 PM 55.4 °F 44.6 °F 67% 29.80 in 6.2 mi West 12.7 mph - N/A   Scattered Clouds
3:50 PM 55.4 °F 41.0 °F 58% 29.80 in 6.2 mi West 10.4 mph - N/A   Scattered Clouds
4:20 PM 55.4 °F 42.8 °F 63% 29.80 in 6.2 mi West 13.8 mph - N/A   Scattered Clouds
4:50 PM 53.6 °F 44.6 °F 72% 29.80 in 6.2 mi West 21.9 mph - N/A   Scattered Clouds
5:20 PM 53.6 °F 44.6 °F 72% 29.80 in 6.2 mi West 12.7 mph - N/A   Mostly Cloudy
5:50 PM 53.6 °F 44.6 °F 72% 29.80 in 6.2 mi WSW 11.5 mph - N/A   Mostly Cloudy
6:20 PM 53.6 °F 46.4 °F 77% 29.80 in 4.3 mi SW 19.6 mph 36.8 mph N/A Rain Rain
6:50 PM 51.8 °F 42.8 °F 71% 29.83 in 5.6 mi SW 13.8 mph - N/A Rain Light Rain
7:20 PM 48.2 °F 42.8 °F 82% 29.83 in 6.2 mi South 12.7 mph - N/A   Drizzle
7:50 PM 50.0 °F 42.8 °F 76% 29.83 in 6.2 mi South 16.1 mph - N/A   Scattered Clouds
8:20 PM 50.0 °F 42.8 °F 76% 29.83 in 6.2 mi SSW 17.3 mph - N/A   Scattered Clouds
8:50 PM 51.8 °F 42.8 °F 71% 29.80 in 6.2 mi SSW 19.6 mph - N/A   Scattered Clouds
9:20 PM 50.0 °F 41.0 °F 71% 29.80 in 6.2 mi SSW 18.4 mph - N/A   Scattered Clouds
9:50 PM 50.0 °F 39.2 °F 66% 29.80 in 6.2 mi SSW 19.6 mph - N/A   Scattered Clouds
10:20 PM 51.8 °F 39.2 °F 62% 29.80 in 6.2 mi South 18.4 mph - N/A   Scattered Clouds
10:50 PM 51.8 °F 39.2 °F 62% 29.77 in 6.2 mi South 19.6 mph - N/A   Scattered Clouds
11:20 PM 51.8 °F 41.0 °F 67% 29.77 in 6.2 mi SSW 20.7 mph - N/A   Partly Cloudy
11:50 PM 51.8 °F 42.8 °F 71% 29.74 in 6.2 mi SSW 24.2 mph - N/A   Partly Cloudy